Theta_e
340 344 345 346 348 349 351 351 351 352 354 354 354 354 354 354 354 353 354 355 356 355 355 354 354 355 354 351 350 352 355 356 356 358 358 358 358 358 362 359 365 365 365 365 365 363 367 367 370 367 368 368 368 368 367 365 369 367 364 368 361 358 352 353 350 352 349 343 348 346 348 349 350 352 348 349 348 349 349 348 349 353 353 353 356
341 343 344 346 347 349 351 351 352 351 354 354 353 354 354 354 353 353 354 355 354 354 355 355 356 354 353 351 350 351 354 353 354 357 355 356 361 362 362 363 364 366 366 367 367 367 367 364 367 367 368 369 369 370 367 367 368 367 366 361 361 354 352 351 349 356 344 338 339 340 342 346 350 347 346 346 346 348 349 352 352 347 347 350 353
339 341 344 345 347 348 350 351 351 351 353 353 354 355 355 355 355 356 354 355 354 355 355 356 357 358 356 354 353 352 356 358 356 356 357 355 358 361 365 364 365 367 368 368 367 366 366 366 366 367 370 369 368 367 365 366 366 365 365 362 361 356 351 351 357 353 339 341 345 345 335 337 341 344 344 344 343 344 346 346 346 346 347 350 353
336 340 341 344 347 349 350 351 351 352 352 353 353 354 354 358 358 357 356 356 357 357 357 358 359 360 361 360 360 358 357 360 361 360 359 357 355 360 366 366 367 365 365 365 366 368 366 367 366 367 370 369 368 365 365 364 366 366 365 364 362 355 349 349 353 355 352 345 339 338 336 334 330 338 341 342 342 343 343 342 345 346 348 352 354
336 338 341 343 345 346 349 350 351 351 351 352 352 353 352 356 359 360 358 357 359 358 358 358 358 358 359 361 362 361 361 359 356 353 357 359 358 358 362 367 365 366 365 367 367 369 368 367 369 368 369 370 367 365 364 363 363 366 368 366 363 356 353 350 351 352 354 357 351 342 334 333 332 335 333 342 341 340 343 344 345 345 347 347 347
338 338 340 342 344 347 349 350 349 351 351 352 352 352 355 356 360 361 361 360 357 359 359 357 356 354 353 352 351 353 353 352 351 352 353 354 354 357 363 363 363 365 365 366 367 368 368 369 370 369 369 367 366 365 366 363 363 366 366 365 361 365 364 358 348 352 352 358 358 348 347 339 336 340 335 337 349 343 345 346 347 347 349 349 355
337 338 339 340 345 346 348 349 349 349 351 353 353 354 355 358 361 360 360 359 359 360 360 358 356 356 356 354 354 353 352 353 356 354 354 354 357 357 361 362 364 363 363 365 366 369 372 370 370 369 367 367 366 365 364 362 361 363 366 366 364 367 367 358 353 348 354 352 348 348 349 349 345 341 338 340 341 346 344 344 345 346 347 348 348
335 337 339 342 345 346 346 348 348 349 351 353 352 354 356 360 362 360 360 359 359 360 360 359 356 356 357 355 354 354 352 353 356 358 358 358 359 358 357 359 363 364 364 365 366 368 370 371 369 370 367 367 362 363 363 363 366 366 367 370 370 368 367 362 361 355 351 349 351 350 350 350 351 348 347 342 340 340 342 344 346 347 347 349 351
336 336 338 340 343 344 346 347 348 350 351 352 352 355 357 360 361 360 359 359 358 361 360 359 358 357 357 355 353 355 352 353 356 358 358 359 358 358 360 357 361 363 365 365 365 368 368 369 372 369 367 367 365 365 365 363 365 366 367 367 367 366 365 365 365 359 358 352 356 355 353 351 348 349 350 350 342 339 339 340 344 347 349 352 352
336 337 339 340 343 346 347 348 348 349 352 353 353 353 357 360 360 359 359 358 359 360 360 359 359 358 357 355 354 353 354 354 354 355 358 357 357 358 358 360 357 358 362 363 366 366 367 369 368 367 366 364 364 368 366 365 364 367 367 366 369 368 367 364 363 362 360 360 357 356 355 351 351 351 348 351 345 350 343 342 343 344 343 347 353
336 337 338 340 343 346 347 347 348 349 352 353 352 353 355 358 359 359 360 358 359 359 359 358 359 358 357 357 355 354 355 356 355 356 357 357 356 355 356 358 357 354 354 359 362 363 365 367 366 366 366 367 364 366 366 362 361 363 366 366 368 367 365 366 363 364 362 360 359 356 351 349 350 346 350 346 342 344 343 342 342 344 344 342 353
336 336 338 339 342 346 348 348 348 350 351 352 352 353 354 356 358 358 360 359 360 358 358 356 356 358 358 358 357 357 357 354 356 356 356 357 356 355 357 357 357 356 357 356 358 358 366 365 368 368 367 366 364 366 367 365 364 365 365 366 367 366 367 366 365 360 359 362 356 355 353 350 352 351 348 350 350 350 346 345 343 347 348 346 348
336 337 338 339 340 344 346 349 350 350 351 352 351 352 354 355 357 357 358 360 360 359 357 358 357 357 358 358 358 359 358 357 356 356 356 356 356 355 358 357 358 358 358 356 358 359 365 366 368 366 368 368 369 369 369 367 370 366 366 362 366 365 366 365 362 362 361 358 356 356 353 352 352 354 353 349 349 351 350 346 348 348 345 343 350
335 336 338 339 342 345 348 349 350 350 350 350 351 354 355 354 357 356 358 360 361 359 358 357 358 359 360 359 359 358 358 358 357 355 355 356 357 357 355 355 356 357 356 357 356 357 359 364 367 368 370 370 369 371 371 371 370 367 367 365 363 366 366 365 363 362 361 361 360 355 356 354 354 355 355 353 350 347 347 346 349 349 347 343 347
338 337 337 340 342 346 347 348 350 351 350 349 351 354 356 355 356 357 359 359 361 359 359 358 356 358 359 359 359 360 357 357 357 356 358 355 354 355 357 354 352 355 355 360 362 361 361 366 365 366 368 369 369 368 366 369 372 369 369 369 368 366 365 363 362 359 356 361 361 358 356 354 356 356 352 352 353 351 351 351 351 346 343 343 344
338 338 339 341 344 346 347 349 349 350 351 350 351 353 354 355 358 358 358 359 359 360 360 359 358 358 360 360 359 361 361 359 359 361 360 359 358 357 358 360 358 357 360 361 361 362 362 362 365 365 369 368 369 368 368 369 371 367 367 369 368 364 365 366 363 361 358 359 358 361 359 352 356 355 356 354 354 357 354 355 353 352 349 344 343
338 338 339 341 343 346 347 349 349 349 349 350 353 354 356 356 357 357 358 359 359 361 359 360 361 360 360 360 359 359 358 359 357 359 357 359 361 360 357 357 359 361 357 359 360 362 363 363 363 363 366 368 369 368 366 368 371 369 365 368 367 366 367 367 364 364 364 358 357 360 360 357 357 359 359 357 361 363 357 358 356 353 355 349 347
341 341 342 343 344 346 346 348 348 348 348 350 354 355 356 356 357 356 357 358 357 358 358 359 360 360 361 360 360 359 358 357 358 357 357 359 359 361 360 359 358 358 358 356 358 360 363 364 364 365 366 366 366 366 367 366 369 367 367 369 367 370 368 369 369 366 364 363 360 359 358 355 359 359 358 359 363 367 361 360 360 361 362 354 352
339 340 341 341 343 346 347 348 350 351 352 352 354 354 355 355 355 355 355 357 356 356 357 358 360 357 357 359 358 358 358 360 359 361 361 358 356 356 357 358 359 361 361 361 363 361 362 362 365 365 365 365 366 365 366 367 368 367 365 365 367 370 368 366 369 368 363 362 364 360 361 357 360 359 361 357 361 364 362 361 361 363 362 361 358
338 340 341 342 343 345 347 347 349 351 350 350 352 353 353 354 355 355 356 358 359 358 358 357 357 357 356 358 359 360 359 358 361 362 359 359 359 356 358 356 358 360 359 360 361 361 361 362 361 359 360 362 363 363 363 365 365 366 364 362 363 369 368 367 365 364 361 363 365 364 364 362 361 362 362 360 359 363 364 359 360 362 363 364 362
338 339 340 342 344 344 345 348 350 352 352 350 351 353 353 353 353 354 355 355 356 357 359 359 359 357 358 357 356 357 356 357 356 358 359 359 360 360 358 359 361 360 362 360 360 361 363 363 361 363 360 362 365 364 364 365 367 367 366 366 366 367 367 365 366 365 362 362 364 364 365 364 365 362 360 358 357 357 360 360 362 361 359 362 362
339 338 339 341 344 344 345 348 350 351 351 349 350 352 353 354 356 356 357 358 358 356 358 360 362 360 356 356 356 356 358 358 356 357 357 358 359 360 361 362 360 363 363 361 362 362 362 361 362 362 364 363 364 368 363 363 363 364 364 361 362 365 365 365 364 363 363 359 362 364 364 364 366 366 363 359 357 355 355 354 357 358 358 358 364
336 338 338 340 343 344 344 348 351 352 353 352 353 354 355 357 358 358 356 358 359 359 358 362 362 362 359 357 356 356 357 357 357 359 358 357 358 358 361 360 359 360 363 362 361 361 363 365 364 363 366 365 366 365 364 363 363 364 365 362 360 363 363 362 361 361 360 361 359 362 362 364 360 361 363 362 360 358 358 358 356 356 356 357 359
338 338 338 341 343 345 345 348 351 354 354 354 355 357 358 358 360 360 358 359 359 358 359 361 362 361 361 360 358 356 356 357 356 358 358 359 358 359 361 359 359 359 358 363 362 362 363 367 363 364 365 366 366 365 364 364 364 364 364 365 364 363 362 360 359 358 357 358 357 359 358 359 361 362 363 360 360 359 360 361 360 360 358 356 357
337 337 338 341 342 344 346 349 354 355 354 356 357 359 361 361 362 362 361 360 359 360 359 361 362 362 361 360 358 356 357 358 357 356 356 356 357 357 360 360 360 358 360 361 364 364 365 366 362 362 365 366 366 366 366 364 363 365 366 364 364 365 366 365 363 361 361 361 359 359 358 361 362 362 364 361 360 360 361 360 359 359 358 358 357
337 338 338 340 344 347 348 352 355 354 354 357 359 359 362 363 363 364 363 361 361 362 361 362 364 361 362 362 361 360 357 358 357 356 356 356 356 356 358 360 360 360 362 360 362 364 363 365 364 364 364 367 368 368 368 368 365 365 364 364 365 366 364 365 364 363 362 361 360 362 363 363 362 361 360 361 364 363 362 358 359 358 357 357 358
337 338 339 343 346 348 351 354 355 355 353 357 359 360 362 363 364 363 366 364 364 365 364 363 363 362 363 363 360 359 359 358 358 358 356 357 356 355 356 357 361 361 361 360 360 362 364 364 366 364 362 365 367 366 369 370 368 366 364 364 363 364 365 364 364 362 362 361 361 361 363 363 363 363 361 362 363 363 359 360 360 360 356 357 354
339 340 342 344 346 348 351 353 354 354 353 356 359 359 361 363 363 363 365 365 365 366 366 366 366 364 365 364 363 361 361 360 360 362 359 358 356 356 357 359 361 362 360 360 359 359 361 363 363 363 365 366 367 368 370 371 369 367 365 364 364 364 362 362 362 364 363 362 362 361 361 361 362 364 366 366 365 362 363 361 360 361 362 359 357
338 340 343 344 346 349 351 352 353 353 352 354 356 358 361 363 365 365 365 367 368 368 368 368 367 365 366 369 368 366 364 362 362 363 361 359 359 360 359 361 363 362 359 360 360 359 360 361 362 364 365 364 362 364 365 366 367 367 366 363 363 364 363 362 362 360 361 362 362 362 360 359 362 361 366 367 368 369 363 362 363 363 364 361 362
339 342 344 347 347 348 351 352 353 353 353 351 353 357 359 360 362 364 366 368 369 369 369 368 367 367 368 370 370 369 368 367 365 365 365 363 361 362 360 361 362 362 363 364 363 363 362 361 361 363 364 362 361 361 365 370 369 365 365 362 361 363 364 363 366 365 362 362 361 362 359 359 363 364 366 370 369 366 365 364 366 365 364 366 362
343 343 344 348 349 350 350 351 352 352 353 354 356 357 358 359 359 362 366 369 370 369 368 368 368 369 369 370 371 372 372 369 368 367 367 367 364 365 363 363 363 363 363 365 365 362 361 360 359 360 360 358 359 357 356 347 349 355 362 363 363 364 366 369 365 364 362 362 360 361 361 359 361 364 368 369 369 371 370 372 370 369 369 365 362
340 343 345 346 346 348 348 351 353 354 353 353 355 356 357 357 359 361 362 364 365 365 366 367 368 369 368 367 366 367 368 370 369 368 368 368 368 366 366 367 365 363 366 364 362 362 363 362 360 360 358 357 356 347 339 341 346 345 354 363 360 361 361 362 364 362 361 361 360 361 361 360 361 362 360 359 357 362 367 371 369 370 369 369 370
337 338 340 342 343 343 346 350 352 352 354 357 358 356 357 359 359 360 362 362 362 361 363 364 366 365 366 366 365 364 364 364 367 369 369 367 367 367 366 365 362 364 362 363 364 362 363 363 361 362 359 361 361 346 337 340 341 343 343 357 359 357 357 358 358 359 360 362 365 363 361 362 364 361 360 359 360 360 362 368 368 368 368 369 353
336 337 340 341 342 342 344 348 349 352 354 355 357 357 358 360 360 362 361 362 363 363 363 362 363 364 364 361 361 363 362 363 364 367 368 366 365 363 364 365 364 365 365 364 363 363 364 365 364 364 364 363 362 346 336 340 340 339 341 349 362 356 358 361 359 359 361 362 362 366 364 363 363 363 363 363 365 364 363 365 369 365 365 369 362
334 335 335 337 340 342 344 347 348 348 352 353 354 356 357 359 360 358 359 361 362 362 361 361 361 362 361 359 361 362 362 362 363 365 366 366 365 364 364 364 364 365 366 367 365 364 365 365 363 361 361 358 351 324 328 329 331 334 338 348 361 358 360 360 360 359 361 360 363 363 364 364 365 364 364 365 364 363 363 361 363 361 360 363 366
332 333 334 336 337 339 341 344 347 348 350 349 351 355 357 357 358 357 357 358 358 358 358 360 359 361 361 360 361 361 361 360 361 357 360 361 363 365 363 364 364 365 365 367 368 367 366 367 368 367 365 363 341 319 321 324 323 327 335 352 359 364 364 362 361 360 362 363 363 366 364 361 361 360 355 343 352 363 362 360 360 360 361 360 358
332 334 333 336 338 339 341 343 345 348 349 350 351 351 353 355 356 356 358 357 358 357 358 358 358 360 359 360 360 360 360 359 359 359 360 361 362 363 363 365 364 365 363 364 365 363 364 363 363 364 363 361 344 323 316 318 321 322 334 354 360 360 363 364 363 364 366 365 364 360 360 361 361 356 332 326 332 346 359 359 357 356 355 355 357
333 334 336 336 338 340 342 343 344 345 346 347 348 348 348 348 349 353 356 356 357 356 357 357 358 357 357 356 359 359 356 355 355 354 357 360 361 362 362 363 362 362 362 361 361 360 360 358 357 356 353 359 344 325 313 315 317 319 334 352 359 360 363 363 363 364 367 364 354 357 354 353 347 336 322 322 326 345 356 359 358 355 351 353 355
332 333 333 335 336 337 338 340 341 342 345 347 348 347 347 346 351 352 353 354 354 356 356 354 355 357 355 355 355 354 354 353 353 353 354 354 355 356 357 357 356 357 357 358 357 358 356 357 355 352 346 351 346 331 314 313 314 318 335 355 358 359 359 360 360 360 360 357 348 343 341 334 334 327 317 320 322 341 352 356 356 355 352 350 347
333 333 333 334 335 335 334 335 337 339 343 345 344 342 342 341 339 342 343 346 350 350 350 348 350 351 351 351 351 351 351 350 350 351 353 354 354 354 354 355 354 353 352 353 354 354 353 351 350 349 346 345 342 334 321 311 312 316 323 349 356 355 355 356 356 355 350 349 346 339 332 321 318 317 315 315 318 323 345 351 351 350 346 347 348
332 332 334 332 332 332 332 334 335 337 338 338 337 336 334 333 332 334 335 339 342 345 346 350 350 349 349 347 349 350 350 351 351 348 350 353 354 354 354 354 353 352 351 351 349 351 345 342 342 340 339 337 336 332 323 310 310 312 316 334 351 345 345 349 351 353 347 343 341 339 335 322 315 314 313 311 314 319 332 345 343 343 341 342 346
333 333 332 332 331 332 333 334 337 336 336 336 336 334 332 331 329 329 332 336 340 344 346 345 346 346 347 349 349 351 351 350 349 349 348 349 350 352 352 354 354 351 349 348 348 343 338 336 337 335 334 332 331 329 329 316 311 310 311 317 336 334 334 343 340 339 338 338 338 336 334 323 313 313 312 311 312 318 325 340 332 318 321 328 339
328 328 331 331 329 328 328 329 332 335 337 336 335 333 333 331 328 330 333 336 338 339 340 341 342 343 345 346 346 346 346 347 347 347 346 346 346 347 349 352 348 347 346 343 339 335 332 332 333 332 331 331 331 330 325 326 315 310 310 312 313 324 322 336 334 333 333 336 337 335 332 323 310 308 309 311 314 320 330 323 313 317 320 326 334
328 327 328 329 327 326 326 328 329 333 335 335 333 331 331 330 330 333 335 336 336 336 336 335 334 334 334 335 335 338 341 344 344 344 344 342 344 346 347 346 345 343 339 334 332 332 331 331 330 331 332 333 333 331 327 324 323 314 310 309 311 313 315 330 334 331 331 331 332 331 324 309 307 306 309 311 314 322 325 312 316 321 325 331 335
327 326 327 327 327 326 325 326 328 331 334 334 333 331 331 329 333 336 335 336 337 336 336 335 335 336 336 335 334 333 334 337 340 343 342 343 342 342 339 339 339 338 337 332 332 331 328 328 328 326 327 328 328 329 329 327 325 322 315 312 313 315 316 317 332 330 328 326 317 310 308 310 313 316 316 318 320 320 315 316 318 326 335 335 334
327 326 326 325 326 328 327 327 327 328 330 332 333 333 331 331 333 334 335 336 336 336 334 334 335 336 336 336 334 332 333 335 338 340 340 340 339 339 338 337 337 336 335 333 331 331 329 326 326 326 326 327 327 327 327 328 327 326 325 319 317 318 325 325 327 328 323 321 317 314 313 318 324 328 336 335 335 332 323 324 326 332 332 330 330
324 326 327 325 324 324 326 327 327 328 329 329 329 329 331 335 335 333 333 334 334 334 335 335 335 335 336 335 332 331 330 331 332 332 333 334 337 338 339 338 337 335 333 333 331 329 328 327 326 327 327 327 328 327 326 326 328 328 325 326 329 328 324 325 330 332 330 331 330 330 327 320 321 323 327 329 329 330 331 330 330 329 328 328 329
328 328 327 326 326 326 326 326 325 327 329 330 330 331 332 332 332 335 337 337 336 333 331 332 333 335 335 335 335 332 332 330 328 325 324 325 329 332 330 329 331 334 333 332 332 330 329 328 328 330 332 328 326 324 325 326 323 322 323 324 325 326 326 327 328 331 334 333 332 328 326 333 331 331 331 332 332 333 333 331 327 324 323 324 325
328 329 329 328 328 328 328 326 326 328 330 331 331 330 331 333 333 336 338 337 336 336 335 332 332 334 333 334 333 332 332 329 329 323 317 314 317 321 327 327 323 323 326 335 334 336 336 333 331 330 328 325 324 323 322 309 316 302 312 319 320 322 322 326 322 309 333 332 333 330 330 329 330 328 328 328 327 326 325 325 325 326 325 323 323
329 329 330 330 330 330 330 329 329 331 331 331 331 332 332 332 335 336 337 337 337 336 335 334 335 334 334 333 332 331 332 331 329 326 323 316 306 299 305 322 322 313 306 302 309 333 332 332 329 326 325 329 325 324 304 297 295 294 295 296 297 296 296 308 310 305 315 330 329 328 326 327 327 327 326 326 324 323 323 322 323 323 324 324 324
328 329 330 330 330 330 331 330 330 330 330 331 332 332 333 332 334 335 336 336 336 334 334 333 334 334 333 333 332 332 335 334 334 333 331 328 324 315 297 297 304 305 301 298 298 301 306 314 325 322 315 302 302 298 294 293 294 294 293 293 293 294 294 296 298 314 330 328 327 326 325 325 324 324 323 323 324 323 323 324 323 323 323 322 322
Wind_Speed
11 12 11 11 10 9 8 8 9 9 9 10 10 9 9 8 8 8 7 7 7 7 6 6 7 6 6 7 7 7 6 6 5 5 5 5 6 6 6 5 5 4 4 3 2 2 1 2 2 2 2 3 3 3 4 4 3 2 3 3 4 4 3 1 4 2 2 1 1 1 4 1 5 2 1 1 1 1 6 5 2 2 3 3 1
12 11 11 10 9 10 9 8 9 10 10 10 10 10 9 9 9 8 8 7 7 7 6 6 6 6 6 7 7 7 6 6 5 5 6 7 6 5 5 5 5 4 4 3 2 2 2 2 2 2 2 3 3 3 3 3 2 3 3 3 3 4 2 4 4 3 4 1 0 2 3 4 1 2 2 3 1 2 1 3 2 3 0 2 1
12 12 11 10 11 11 9 8 9 10 11 11 10 11 10 9 8 8 8 8 7 7 6 6 6 5 6 6 6 6 6 5 5 5 5 7 7 6 5 5 5 4 4 4 3 3 2 2 2 2 2 2 2 2 2 2 2 3 3 2 4 2 1 2 3 5 2 2 2 3 2 3 2 1 1 1 2 1 1 1 2 1 2 4 5
13 13 13 11 11 10 9 9 9 9 10 11 11 11 10 9 9 9 8 8 7 7 7 7 6 5 4 5 4 5 5 4 4 5 5 6 7 6 5 5 5 5 5 4 3 2 2 1 2 3 2 2 1 2 2 2 2 2 3 4 3 4 1 3 3 3 6 2 3 1 2 1 3 1 1 2 2 2 3 2 1 2 6 6 3
13 13 12 12 11 11 10 9 10 9 10 11 11 11 8 11 10 9 8 8 7 8 7 6 6 7 5 5 4 4 5 5 5 6 6 5 6 6 6 5 5 3 4 3 2 3 2 2 1 2 2 1 1 2 1 2 2 3 2 2 4 5 6 2 3 2 4 4 4 3 2 2 2 1 2 2 5 3 3 3 2 4 7 3 2
13 13 12 12 12 11 10 10 11 10 10 10 10 11 10 10 11 10 8 8 8 9 8 7 7 7 7 7 6 6 6 6 6 6 7 7 6 6 7 6 6 5 4 3 3 3 3 2 1 1 3 2 1 2 2 2 2 2 3 3 3 5 4 5 1 3 3 2 0 1 1 4 1 4 4 2 2 4 1 1 2 2 2 6 3
13 11 12 13 12 11 11 11 11 11 10 10 10 11 11 11 11 10 9 8 8 9 9 7 7 7 7 7 6 6 6 5 4 5 5 6 4 6 5 5 5 5 5 4 3 2 2 2 2 1 2 2 2 1 2 2 3 2 2 2 4 4 5 5 6 2 2 1 1 2 3 3 4 3 3 3 2 1 3 3 2 3 3 2 2
14 13 13 12 12 12 12 12 11 11 11 10 10 10 11 11 11 11 9 8 8 9 9 8 8 7 7 7 6 5 6 6 5 4 4 4 4 5 5 5 5 4 3 3 3 3 2 3 2 1 1 2 2 2 1 1 3 2 2 3 2 2 3 2 5 6 3 2 4 4 2 2 2 2 4 5 3 4 3 2 4 2 6 4 7
15 13 14 13 12 12 12 12 11 11 11 11 10 10 11 10 11 10 9 9 9 10 10 9 8 8 7 7 6 5 5 5 6 5 4 4 4 4 4 4 4 4 4 3 4 3 3 2 2 2 2 2 2 2 2 3 1 2 1 1 1 2 2 3 3 3 5 4 3 4 5 3 2 2 0 3 5 4 5 4 3 3 4 3 11
14 14 13 13 12 12 12 11 12 11 11 10 11 11 11 10 11 11 11 9 9 11 10 10 9 8 7 7 7 6 5 5 5 5 4 4 4 4 4 3 4 5 5 4 3 4 3 3 3 3 3 2 2 1 0 1 1 2 1 1 2 1 1 1 2 3 4 5 3 3 2 3 4 3 3 8 5 6 6 9 10 4 4 3 8
13 13 13 13 12 12 11 11 12 11 10 11 11 11 11 11 12 12 11 10 10 11 11 11 9 8 7 7 8 7 7 6 5 5 5 5 5 6 5 5 4 4 5 6 5 5 5 4 4 4 2 3 2 2 3 3 3 3 3 2 1 1 0 1 2 2 2 3 3 1 4 3 1 4 3 3 2 5 3 3 8 7 7 5 5
14 13 13 14 12 11 11 11 12 12 11 11 11 11 11 11 12 12 12 11 10 11 11 11 10 9 8 8 8 7 7 6 6 6 6 6 6 5 5 4 4 4 4 4 5 6 5 4 3 3 2 3 3 3 1 1 1 1 1 1 2 2 2 2 3 2 4 2 5 2 3 5 1 3 4 1 1 4 5 5 6 4 4 6 4
15 14 12 12 12 11 11 11 12 12 11 12 12 11 11 11 13 13 12 12 11 11 12 11 11 10 9 8 8 7 7 6 6 7 6 6 6 6 5 5 5 4 5 5 5 5 5 4 4 3 3 3 2 1 1 1 2 2 0 3 2 2 3 3 3 4 3 4 5 3 5 4 4 3 3 5 4 2 4 5 5 7 6 6 4
14 14 13 13 12 12 12 12 12 12 13 13 12 11 11 11 12 13 13 12 11 11 12 12 11 10 9 9 8 7 8 7 7 7 7 6 5 6 6 6 6 6 6 5 4 6 5 5 4 4 3 3 3 3 3 2 2 3 2 3 3 2 1 3 4 4 4 5 5 5 5 4 5 3 4 4 5 5 5 5 5 5 7 6 5
13 14 14 14 13 13 12 13 13 13 13 13 12 12 11 11 12 13 13 13 12 12 11 12 11 11 10 9 8 7 8 7 7 6 6 7 6 7 5 5 5 5 5 4 4 3 4 4 4 4 4 4 3 3 4 4 3 3 3 3 4 2 4 4 4 5 5 3 4 5 5 6 4 4 5 5 4 5 4 5 5 6 7 6 6
14 14 14 14 14 14 13 13 13 12 14 13 13 12 12 12 12 13 14 14 13 13 12 11 11 10 10 10 10 8 7 7 6 5 6 6 6 5 5 5 4 3 4 4 5 5 5 4 5 5 4 5 5 4 4 4 4 4 4 4 5 4 3 4 5 5 5 5 6 4 5 7 6 6 6 5 5 4 5 5 5 5 6 6 7
15 14 13 14 14 14 13 13 13 13 13 13 13 13 14 13 13 14 14 13 14 13 13 11 11 11 11 11 10 10 9 9 8 8 8 7 6 6 6 6 5 4 4 6 5 5 4 5 5 5 5 5 5 5 5 5 4 5 5 5 5 5 3 4 5 5 5 6 5 4 4 5 5 5 6 6 3 4 5 5 5 5 4 6 6
15 15 14 14 13 14 13 13 14 13 14 15 14 14 13 13 14 15 14 14 14 14 13 12 12 12 11 12 11 11 10 10 8 8 7 7 6 6 6 5 6 6 5 4 4 5 5 5 5 5 5 5 5 5 5 5 5 5 5 4 5 4 3 4 5 5 5 5 5 5 4 5 4 5 6 5 3 3 5 5 5 4 3 5 5
14 15 14 14 14 14 14 13 13 14 14 14 15 14 13 13 13 14 15 15 15 13 13 11 12 10 10 11 12 11 10 9 8 7 7 7 7 7 7 5 5 5 5 4 4 5 5 6 6 6 6 6 6 6 5 5 5 5 5 5 5 5 5 5 5 5 6 5 4 5 5 5 5 6 6 6 5 4 5 4 5 4 4 5 5
14 15 14 14 15 15 15 15 14 14 14 13 14 13 14 14 14 13 14 13 13 13 12 12 12 11 10 10 11 11 10 9 8 8 7 8 7 7 7 7 7 5 6 6 6 6 6 6 7 8 7 7 7 6 7 6 6 6 5 6 4 5 5 5 6 6 5 4 4 5 5 5 5 5 6 5 6 6 5 5 5 4 4 5 4
15 14 14 15 15 15 15 14 14 14 13 13 13 13 13 13 13 14 14 14 14 13 12 11 10 11 11 11 11 11 12 10 10 9 9 8 7 7 7 6 5 6 5 6 6 7 6 6 7 6 7 6 5 5 5 5 5 6 6 6 6 5 5 6 6 6 6 6 6 6 6 6 6 7 6 6 6 6 6 5 5 5 5 4 4
14 15 15 14 14 15 14 13 12 12 12 13 13 13 13 12 11 12 12 11 12 13 12 11 10 10 11 11 11 11 10 10 10 10 10 9 8 8 7 6 7 6 6 7 7 7 7 7 7 7 6 6 5 5 7 6 7 7 7 7 7 7 7 7 6 6 7 6 6 6 7 7 7 7 7 7 7 7 5 5 5 5 4 4 3
12 15 15 14 14 14 14 14 14 13 13 13 12 11 11 12 12 11 12 12 11 11 11 10 10 10 11 11 10 11 10 11 11 10 10 10 9 9 8 8 8 7 7 7 7 8 6 6 7 6 5 6 6 6 6 7 6 7 7 7 7 6 6 7 7 7 8 7 7 7 8 7 6 6 5 6 6 6 6 6 6 6 6 5 4
10 11 12 12 13 13 12 13 13 12 12 13 11 11 12 12 12 11 13 13 12 11 10 10 10 11 11 11 11 10 11 11 11 10 10 10 9 9 8 8 8 7 7 7 7 7 7 7 7 7 7 7 6 7 7 7 7 8 7 7 7 7 7 7 8 8 8 8 8 7 8 7 6 6 6 6 6 6 6 5 6 5 5 5 5
8 9 10 12 13 13 12 12 12 12 12 12 12 11 11 11 12 12 12 12 12 11 11 11 11 11 11 11 11 11 11 11 11 10 11 11 10 9 8 9 8 8 7 7 6 7 7 7 8 8 8 7 7 7 7 8 7 7 7 7 7 7 7 8 8 8 8 8 8 8 8 7 7 7 7 7 6 6 5 6 6 5 5 5 5
9 9 10 11 10 10 12 12 12 12 12 12 12 12 11 12 13 12 11 11 11 10 10 10 10 11 10 11 11 11 12 12 11 11 11 10 10 10 9 8 9 8 7 7 7 6 7 7 8 7 7 7 7 7 7 7 8 8 8 8 8 8 8 8 8 8 9 8 8 9 8 8 8 7 7 6 5 6 6 7 6 6 5 6 6
11 11 10 9 9 10 11 12 12 12 13 12 12 12 12 12 12 12 11 11 10 10 11 10 11 11 10 11 12 12 10 11 11 10 9 9 10 10 10 9 8 8 8 8 8 8 6 7 7 8 8 7 7 7 7 7 8 8 8 8 8 8 9 8 8 9 9 9 9 9 8 8 8 8 7 7 6 6 6 7 6 5 6 5 5
8 10 10 11 11 11 11 11 11 11 12 11 11 12 12 12 12 12 11 11 10 10 11 11 10 10 10 11 12 11 11 10 9 9 9 9 9 9 9 8 8 9 9 8 8 8 8 7 8 7 8 7 7 7 8 8 8 8 8 8 9 9 9 9 9 8 9 9 9 9 10 8 8 7 7 7 7 6 6 6 4 3 4 6 6
10 9 9 9 9 7 8 9 8 9 10 10 9 10 10 10 10 11 10 11 11 11 11 11 11 11 10 10 10 10 10 10 9 8 9 9 8 8 8 7 8 8 7 8 8 8 7 7 7 7 7 7 8 8 8 8 8 9 9 9 9 9 9 8 9 9 9 9 8 9 9 10 3 3 6 5 7 7 6 6 4 3 5 6 5
10 8 6 6 7 7 6 5 5 6 7 7 8 8 8 8 9 10 11 11 11 11 11 11 11 11 10 9 8 8 8 9 9 9 9 9 8 8 8 8 8 8 7 6 6 6 7 7 7 8 8 8 8 7 7 5 5 6 7 7 7 8 8 7 5 5 7 7 6 3 3 11 18 9 6 7 7 9 9 9 6 5 6 4 4
9 8 7 6 5 4 3 3 4 5 6 6 6 6 7 8 8 8 8 8 9 10 10 11 11 10 9 8 7 7 7 8 9 8 8 8 8 7 7 7 7 7 7 6 6 8 8 8 8 8 9 7 9 4 17 5 5 10 10 9 8 7 6 6 7 8 9 9 9 8 5 7 12 14 5 8 10 10 11 11 10 9 8 7 5
9 10 9 9 8 7 6 5 3 2 3 5 6 6 7 8 8 9 9 8 8 7 8 9 9 8 8 9 9 8 8 7 7 8 8 8 8 8 7 7 7 8 7 7 8 8 8 8 8 8 9 9 2 11 8 8 10 8 12 9 9 8 6 7 7 8 9 8 10 8 7 5 0 4 3 2 4 16 12 9 9 9 9 11 7
8 8 9 8 7 7 6 6 5 2 2 3 3 5 7 7 8 8 8 9 10 10 9 8 7 8 8 7 8 9 8 8 7 7 7 7 8 8 8 8 8 8 7 7 8 8 8 8 8 8 9 5 7 12 10 10 8 10 7 7 9 5 5 7 7 7 9 10 8 8 8 6 2 2 1 4 4 6 12 10 10 9 8 6 6
7 7 7 7 7 6 4 4 3 3 3 2 2 5 6 7 8 8 10 9 9 9 9 9 8 7 6 6 8 8 8 8 7 6 6 7 7 8 8 7 7 7 7 7 7 7 7 7 7 7 7 6 7 7 5 2 6 6 8 7 4 6 10 8 8 8 8 9 10 7 7 6 5 4 5 7 7 7 8 8 6 7 8 9 7
6 7 6 6 6 5 4 3 4 4 2 2 1 3 5 6 7 8 9 9 9 9 9 8 8 8 7 7 7 8 7 7 7 6 5 6 6 6 7 6 6 6 6 5 6 6 6 6 7 8 7 8 7 10 9 6 4 1 2 7 7 9 9 9 7 9 8 10 9 8 8 7 6 7 6 8 8 8 6 7 8 10 12 8 9
8 7 6 5 6 6 5 4 2 3 3 1 1 3 3 5 6 7 8 9 8 9 9 8 8 7 7 7 5 5 5 5 5 6 6 6 5 6 6 5 5 4 4 4 3 4 4 3 3 5 4 6 6 12 9 8 6 3 3 6 8 7 8 8 9 8 8 8 12 9 4 6 4 7 10 14 11 7 9 9 12 12 11 10 7
7 6 5 6 7 6 5 3 2 2 3 2 1 1 3 3 2 4 6 7 7 7 6 7 6 7 8 8 7 6 5 4 4 5 4 4 4 5 4 3 4 4 4 3 2 1 1 1 2 4 5 4 8 11 12 10 7 4 5 6 6 7 7 8 8 10 11 8 7 6 2 5 5 3 10 11 11 11 7 11 11 12 10 10 0
8 7 6 8 7 5 4 4 4 4 4 3 1 0 1 1 2 1 1 4 5 5 6 7 7 8 7 6 6 5 5 5 5 4 4 2 2 2 2 2 3 2 3 3 3 3 2 2 3 4 5 3 7 11 12 10 11 11 10 5 5 5 6 7 7 7 7 3 7 14 11 8 7 7 8 9 11 8 7 8 10 9 11 8 6
10 10 10 9 7 8 8 9 9 8 5 4 4 4 2 1 1 1 3 3 3 4 5 5 2 3 5 5 4 5 5 4 3 3 2 2 3 2 2 3 3 3 2 2 2 2 2 2 1 3 5 4 6 8 10 9 9 9 8 6 6 5 5 7 7 7 6 6 7 12 17 12 9 6 8 8 9 8 6 8 8 9 6 6 4
11 11 10 10 10 10 11 12 11 10 9 9 8 8 8 7 8 7 5 4 4 6 7 6 6 3 1 2 4 4 3 3 5 3 2 1 2 2 3 4 3 2 2 1 1 1 3 3 4 5 5 5 6 7 9 11 11 10 10 6 5 5 6 6 6 7 6 4 5 7 10 9 8 8 7 8 8 8 7 6 8 7 6 5 3
11 11 11 11 11 11 11 10 8 8 9 9 9 10 9 9 7 7 7 5 3 3 3 3 4 3 4 3 3 3 4 4 3 5 3 2 0 2 4 5 4 4 3 4 3 4 7 6 6 6 7 7 6 7 10 12 13 13 13 10 5 7 7 7 7 4 3 3 3 4 5 7 7 8 8 8 9 9 8 5 5 4 2 4 5
12 12 11 12 13 13 13 12 11 10 9 8 8 10 8 7 8 7 5 4 6 4 3 4 5 4 3 3 3 3 2 3 4 4 4 4 2 1 1 3 3 4 5 5 6 7 7 7 6 8 8 8 9 11 7 12 13 14 14 15 7 7 7 5 7 6 6 6 5 5 4 4 5 7 7 8 8 9 8 6 6 6 9 10 9
11 11 13 13 13 13 13 12 11 12 10 10 12 12 10 10 10 8 5 6 8 8 8 7 7 6 6 7 7 5 4 3 3 3 4 4 3 2 4 4 7 6 6 7 8 7 7 7 7 7 7 7 7 7 10 9 11 13 12 12 11 9 10 9 8 6 6 4 3 4 4 6 7 8 7 8 8 8 9 7 9 12 11 10 8
12 12 12 14 13 13 13 13 11 12 13 11 11 12 11 12 12 7 7 8 9 9 9 9 10 9 9 8 8 7 6 4 4 5 4 4 3 3 5 6 7 6 7 8 7 7 7 7 7 6 6 5 6 6 10 11 9 10 9 8 9 11 11 7 6 6 6 7 7 7 6 8 8 8 8 10 10 10 8 10 11 11 12 9 7
12 12 12 12 12 13 13 13 12 12 11 10 10 11 13 15 10 8 9 9 9 8 8 10 10 9 9 8 8 8 8 7 5 4 5 6 6 6 7 7 8 8 9 9 5 6 7 7 6 5 5 5 5 5 5 6 7 5 5 7 8 8 9 9 5 5 6 5 2 6 8 7 8 4 5 8 10 10 11 10 9 7 8 6 6
10 10 11 11 12 12 13 13 12 12 10 9 9 11 14 10 8 9 9 8 9 9 9 11 11 10 9 8 9 9 9 9 8 5 7 6 6 6 7 7 8 8 8 8 8 7 7 6 7 5 4 4 4 3 2 2 1 1 1 1 2 3 5 6 4 3 4 2 3 4 5 7 6 5 3 5 6 7 9 9 7 5 5 5 4
10 10 9 9 10 11 12 12 12 11 10 10 11 11 11 9 7 7 8 8 8 8 8 7 8 8 8 8 9 8 8 9 8 8 9 8 7 6 6 7 7 7 7 7 7 7 6 6 7 6 5 4 2 1 1 1 0 1 1 2 1 1 4 3 2 2 3 2 2 2 4 5 6 8 7 6 7 5 6 6 5 6 6 5 5
10 10 10 11 11 10 10 10 10 9 10 10 11 11 10 8 6 6 5 6 5 7 7 8 9 7 6 7 7 7 6 6 6 7 7 6 7 7 6 6 5 4 7 7 6 6 5 5 5 5 5 3 2 1 1 2 2 2 3 4 3 3 4 3 3 2 2 3 4 6 6 3 4 5 5 5 6 6 6 6 6 7 7 7 8
10 10 10 10 10 11 11 11 10 9 10 10 10 10 10 9 7 6 6 6 7 7 6 8 8 6 6 5 6 7 7 8 6 6 8 8 6 5 4 5 6 4 4 3 6 5 4 4 5 4 5 4 3 2 1 3 3 4 3 3 4 5 5 4 6 8 5 3 4 3 3 5 5 6 6 6 7 7 7 6 7 5 5 5 3
9 9 10 10 10 11 11 10 9 8 8 9 10 9 9 8 7 6 5 6 6 6 7 6 6 6 6 5 5 6 5 5 6 7 7 8 10 10 7 4 4 8 10 7 4 4 4 4 5 4 4 2 2 3 5 5 4 3 2 3 5 6 4 3 7 10 7 3 3 3 4 5 6 6 6 6 6 6 6 6 5 3 3 3 3
9 9 9 10 10 10 10 10 9 8 8 8 8 8 8 8 7 6 6 6 6 6 6 6 5 5 5 5 5 6 5 5 5 6 6 7 7 8 13 12 9 9 9 12 13 13 13 10 5 5 5 9 9 7 6 4 5 5 4 4 5 7 6 6 7 3 4 3 5 5 5 4 5 5 5 5 4 4 4 4 4 4 4 4 4
Wind_Direction
163 161 164 160 159 160 157 165 166 161 165 156 167 165 167 170 164 166 162 160 160 163 165 169 161 160 157 162 157 155 156 154 164 158 156 151 144 144 153 154 154 158 158 165 152 148 154 110 98 75 65 62 58 49 52 46 37 357 5 345 331 343 32 354 72 357 343 172 181 223 111 232 130 194 248 195 157 156 150 200 159 200 164 149 175
164 161 164 163 163 159 158 166 169 162 165 167 171 166 169 171 170 168 164 171 171 170 168 173 167 165 165 165 159 151 155 168 158 168 161 135 143 146 169 146 158 163 160 160 151 153 160 137 113 91 81 77 59 67 69 82 47 25 1 358 328 5 21 8 38 290 208 37 357 145 152 127 32 189 238 78 276 124 177 180 142 264 295 146 135
168 166 168 169 165 163 160 169 171 168 169 172 171 165 170 171 172 170 175 171 177 173 178 173 177 169 176 157 165 147 159 166 154 152 151 146 155 161 156 154 167 164 160 167 161 173 146 125 131 115 84 78 79 87 88 88 60 40 4 46 317 197 164 80 20 334 6 81 86 253 126 169 166 196 210 73 356 44 236 111 297 297 87 19 10
175 172 172 171 168 167 167 170 172 170 171 171 173 170 171 171 173 175 177 178 178 175 186 177 171 173 175 160 144 152 149 134 134 146 159 153 156 156 163 164 181 171 168 173 163 139 151 156 114 114 111 76 71 69 92 98 98 59 31 22 335 295 107 64 33 40 347 13 219 315 151 249 175 306 187 359 311 33 357 349 14 324 70 4 246
178 178 175 171 171 174 173 172 174 173 177 173 177 172 177 171 172 176 176 180 175 176 181 176 166 172 169 154 146 133 144 160 165 164 164 166 166 172 162 174 178 178 159 172 156 133 132 134 109 111 109 95 99 132 121 94 78 94 41 22 12 13 331 46 61 30 69 11 351 268 180 215 351 346 335 75 322 3 17 356 90 282 76 312 340
186 184 178 173 176 170 174 176 180 175 180 176 182 173 174 170 170 175 175 179 177 173 177 177 173 173 171 169 169 169 167 172 177 171 170 173 180 171 159 177 177 178 176 179 148 146 142 136 133 144 131 131 99 45 69 121 131 79 73 357 29 35 332 321 93 107 53 51 358 89 359 7 341 335 298 36 275 333 30 42 9 353 170 193 210
190 187 184 182 177 174 178 183 184 181 179 175 180 171 173 167 169 174 174 176 175 171 175 180 176 180 183 183 179 177 171 167 175 175 170 173 172 169 161 177 179 195 178 175 157 153 146 140 137 190 133 133 145 175 182 200 113 79 44 45 22 18 8 347 335 69 35 272 56 54 31 347 7 342 354 325 297 65 318 342 27 330 307 343 21
186 186 189 186 182 181 185 182 187 182 175 175 178 170 171 169 169 174 173 175 173 167 176 184 182 184 187 189 180 190 179 159 170 170 162 169 168 175 174 180 174 207 190 163 192 167 185 161 156 169 208 101 157 194 183 51 65 81 64 38 22 20 27 33 335 335 334 67 18 329 84 54 324 342 7 336 311 343 327 24 287 15 311 27 22
187 189 186 189 186 188 187 184 185 179 175 174 179 168 167 170 170 173 174 175 173 171 177 183 187 185 188 186 183 186 177 167 172 171 162 172 172 176 180 180 176 190 205 193 187 185 194 183 163 191 179 180 215 185 203 124 118 88 118 78 72 42 17 20 333 2 323 29 26 6 359 321 329 345 228 295 355 26 269 328 316 342 307 18 19
193 189 188 189 191 194 188 185 182 179 172 173 176 172 168 168 172 174 175 178 174 175 180 182 188 186 190 190 185 183 181 176 179 164 171 174 183 177 182 201 195 186 188 204 188 200 197 193 198 182 196 186 235 70 92 124 165 162 183 114 24 18 34 312 329 352 347 339 19 11 344 345 328 327 329 54 345 292 6 337 326 322 16 1 67
194 189 188 190 191 197 188 183 183 174 171 174 178 176 172 172 172 177 177 179 175 178 182 183 188 189 193 193 193 188 184 177 184 170 180 182 195 189 190 194 216 201 192 178 201 200 189 200 211 182 210 146 215 198 209 218 178 184 161 130 203 268 226 317 270 256 296 311 292 169 295 292 28 314 315 16 314 294 16 264 267 337 351 348 138
189 190 191 186 187 198 188 185 178 176 172 176 180 176 177 174 174 178 178 181 177 180 184 188 190 192 200 197 198 198 192 189 190 188 185 191 196 197 195 196 201 202 217 190 194 195 176 196 205 193 196 205 186 223 244 245 299 122 160 187 192 200 236 256 296 305 290 241 285 288 260 279 259 286 325 304 230 344 311 312 307 331 334 314 22
188 189 190 190 186 193 189 181 175 174 178 177 183 180 177 176 177 181 182 183 182 182 186 190 194 194 200 200 203 202 201 199 196 198 194 196 202 199 192 203 200 215 208 212 193 202 173 194 202 198 194 209 230 262 232 267 292 286 34 229 201 223 213 227 241 253 270 307 300 302 287 290 314 312 291 306 321 272 275 295 323 332 316 317 359
189 186 189 192 186 189 185 180 178 180 182 181 182 182 177 177 180 184 184 186 184 187 186 191 196 198 198 205 203 202 206 205 206 205 198 200 200 213 204 198 201 210 207 208 219 196 193 185 192 200 200 202 211 224 239 245 245 266 230 249 232 212 257 233 250 257 253 247 257 290 296 309 292 303 302 281 296 310 310 316 329 314 307 316 306
191 189 189 191 185 186 184 183 182 184 184 183 181 181 178 179 180 185 185 187 188 190 189 192 194 199 200 205 206 206 206 208 210 214 211 203 207 200 212 220 207 204 212 201 208 218 205 192 197 205 192 207 209 223 226 220 227 233 253 257 280 223 238 260 248 247 258 250 266 259 276 277 289 289 284 292 299 300 320 320 323 311 312 312 311
188 192 189 191 186 186 187 186 186 187 183 185 183 180 184 183 182 186 187 188 189 191 192 194 196 196 199 203 208 207 209 214 209 212 220 225 211 222 203 223 240 208 205 205 198 208 209 212 205 207 212 209 211 219 230 227 210 233 239 244 246 245 233 241 259 266 262 257 262 279 281 283 285 284 301 305 297 314 325 315 306 302 311 314 320
186 192 191 191 189 188 189 187 187 186 184 185 183 183 185 182 184 186 189 189 191 193 195 194 194 197 197 201 204 204 208 212 213 208 215 210 219 221 221 218 212 225 211 199 209 197 213 219 224 226 208 220 223 221 229 225 228 236 233 237 255 266 252 262 274 270 273 273 266 262 277 286 284 292 287 288 313 311 296 310 305 306 301 298 300
184 188 190 190 189 188 190 190 188 187 187 185 184 186 185 188 186 187 190 192 191 193 196 194 194 197 197 200 203 208 208 212 215 212 213 214 208 219 231 215 221 212 214 218 196 203 203 217 227 234 239 226 232 234 221 225 226 240 241 243 248 259 258 258 262 272 269 265 268 275 272 274 274 264 255 265 265 267 282 276 275 281 288 282 296
185 186 185 189 188 188 189 189 188 188 189 187 184 187 186 190 191 191 193 194 194 193 195 197 196 199 197 200 201 204 212 215 212 212 217 217 219 213 221 224 220 213 210 221 224 219 208 208 219 225 218 226 220 230 228 230 226 236 240 241 225 226 240 249 253 247 257 263 280 277 272 270 284 291 292 281 274 262 261 267 273 276 269 278 284
187 188 187 187 189 189 188 189 188 187 188 189 186 187 190 190 191 196 193 195 198 199 192 199 198 203 199 196 200 203 207 214 215 213 214 217 216 225 221 213 218 217 209 204 220 229 225 219 209 218 226 222 219 219 223 215 221 236 245 249 230 204 234 250 259 265 268 260 260 267 267 271 276 275 278 278 270 257 263 272 274 270 260 257 267
190 190 189 186 188 191 190 189 188 188 188 188 187 187 193 189 191 195 195 196 197 201 196 199 202 203 203 201 199 200 205 207 215 213 222 221 221 222 224 225 213 220 218 216 216 226 232 230 237 233 234 230 229 240 235 233 224 225 236 249 266 263 255 257 253 257 263 265 254 258 268 271 271 271 272 272 271 264 257 254 248 248 258 253 249
189 189 191 189 188 193 188 186 188 185 189 192 188 186 190 189 188 196 193 200 200 201 199 198 205 203 206 203 205 198 204 209 213 213 217 216 217 212 214 221 219 211 221 223 221 220 217 228 233 228 234 238 231 224 240 232 229 226 235 233 226 227 238 247 261 259 253 260 263 254 259 259 250 251 266 275 272 274 270 267 268 264 264 272 241
190 195 192 192 188 193 188 184 185 184 187 189 187 184 186 186 185 190 195 195 201 206 201 197 202 208 208 209 208 202 203 209 214 216 214 216 208 211 207 213 220 216 206 219 220 222 223 223 233 239 231 235 234 238 237 241 242 243 244 255 262 250 239 245 242 243 245 246 248 250 249 249 254 255 253 259 272 282 284 291 292 290 292 286 280
192 198 195 195 189 189 186 182 183 182 184 185 184 181 181 182 182 185 195 192 197 202 203 195 201 206 208 208 208 213 207 206 210 214 216 219 218 206 205 215 218 222 218 206 221 231 217 214 229 229 229 238 237 236 241 237 233 239 248 249 251 257 262 256 256 257 255 247 248 250 254 261 265 267 263 271 272 269 273 266 270 277 271 277 288
183 193 200 195 194 186 185 179 179 182 183 182 181 181 181 180 181 185 191 192 195 198 202 196 200 204 206 211 209 209 211 210 213 213 214 214 220 218 206 216 218 222 225 221 204 219 226 220 224 224 227 229 231 234 236 244 247 243 245 251 253 251 250 253 259 260 263 266 263 263 263 258 255 256 257 256 261 260 257 265 271 271 274 273 278
187 199 202 199 193 182 180 178 180 183 181 180 183 182 183 182 186 187 186 190 195 193 201 196 201 201 203 209 216 214 212 211 214 217 215 215 216 218 217 209 219 223 222 227 224 217 216 217 227 234 231 226 227 232 234 243 246 245 243 246 247 246 249 254 253 251 248 249 251 251 254 256 257 257 263 272 281 286 283 269 264 274 295 315 288
188 192 201 193 189 184 182 182 182 187 183 183 183 185 185 186 190 188 186 186 188 191 194 196 199 202 197 203 209 216 217 214 212 219 219 215 218 217 217 215 210 218 218 224 218 220 223 224 221 229 232 227 226 230 233 233 240 246 248 249 252 250 250 250 249 250 254 251 250 249 247 249 252 253 260 261 256 254 261 273 266 280 304 269 296
184 191 192 190 190 190 190 189 188 189 190 185 187 188 188 190 190 190 185 183 184 189 191 193 197 202 199 200 206 211 217 219 217 214 224 223 218 219 214 217 215 212 219 220 227 219 213 219 227 228 230 232 226 231 228 233 239 244 240 238 239 251 254 249 251 252 256 262 261 260 255 253 246 239 245 248 251 259 265 274 299 63 277 296 291
180 185 192 192 193 190 195 198 198 200 199 192 190 193 193 191 193 190 185 185 182 184 189 191 195 200 202 202 203 206 210 212 216 215 218 226 225 221 217 220 219 226 222 221 223 228 229 230 226 229 234 234 233 227 227 223 226 231 246 247 249 250 249 248 252 257 256 260 274 285 301 292 317 60 281 284 300 312 294 277 279 298 277 262 273
173 171 175 183 191 187 191 191 198 200 204 202 205 204 202 202 195 191 188 184 182 186 188 191 196 199 200 200 201 205 205 208 210 210 213 220 224 223 221 214 221 225 231 241 242 240 240 234 231 228 229 233 237 239 219 206 253 262 244 252 252 250 253 259 275 277 274 281 274 266 220 287 290 259 249 239 239 255 251 265 284 262 260 274 275
95 103 120 116 110 111 123 154 183 199 200 206 207 203 202 201 208 204 200 192 191 189 192 195 198 198 194 192 193 195 197 204 208 211 209 215 222 224 224 223 223 225 233 229 233 239 241 244 241 237 233 235 240 10 23 346 228 226 250 260 256 257 254 267 271 265 266 270 275 258 244 233 254 257 274 327 308 272 253 241 244 254 263 265 253
82 84 84 78 74 70 71 63 45 331 238 219 215 211 206 202 199 195 184 191 206 215 212 206 203 199 194 196 200 197 198 200 208 212 212 213 212 217 220 219 222 221 216 230 231 232 240 247 247 248 248 248 78 91 176 227 250 287 285 280 266 257 268 270 257 258 262 259 258 265 260 258 196 56 126 176 268 286 273 243 239 233 235 244 267
74 78 84 84 83 69 60 57 58 40 3 319 263 224 223 215 204 195 190 191 192 201 211 217 215 215 205 206 205 205 199 205 203 208 211 209 215 215 214 218 222 229 233 224 229 237 233 236 245 252 260 268 281 143 178 233 232 207 211 260 269 316 340 276 280 283 280 278 270 265 270 281 316 107 315 251 252 266 274 254 236 235 232 225 227
79 66 63 78 80 83 59 70 70 35 17 349 298 273 243 232 223 201 195 199 197 197 201 203 204 210 207 210 219 212 204 200 200 205 209 212 213 217 217 217 222 221 230 238 241 238 240 246 253 257 260 263 238 87 51 93 210 200 209 219 217 253 243 248 255 262 260 270 272 268 267 269 275 241 216 236 234 234 238 248 247 246 241 207 198
68 69 53 50 51 59 48 33 42 43 27 3 282 256 241 224 222 217 209 204 199 201 201 196 199 198 196 204 213 214 209 199 199 197 205 215 216 219 221 220 221 223 219 224 235 246 258 260 256 252 252 246 65 32 42 30 46 246 226 241 237 232 240 246 251 257 261 251 262 269 265 266 275 278 263 251 252 241 243 241 248 256 239 222 228
59 54 48 49 47 45 24 10 334 275 268 253 19 347 296 238 225 223 217 214 211 211 203 200 198 192 184 184 190 206 221 208 198 219 219 214 215 224 224 219 226 222 218 220 217 228 244 270 276 282 285 278 74 35 35 37 23 1 278 256 255 247 246 242 243 253 247 250 237 233 249 274 279 290 352 358 345 310 257 254 250 251 251 237 217
74 70 60 44 47 38 24 342 316 274 256 256 347 311 3 3 281 231 219 213 210 208 202 196 189 178 182 179 178 180 174 189 202 218 218 224 216 215 216 207 209 207 200 199 211 211 227 249 329 335 327 294 62 29 13 7 358 346 262 254 262 262 259 256 243 234 241 250 30 25 265 287 281 39 5 356 357 335 284 269 268 262 270 285 1
66 71 67 59 55 46 41 33 41 55 40 31 9 298 219 284 318 318 245 191 184 174 166 179 182 184 178 171 163 165 185 198 210 216 238 222 206 171 210 203 238 211 180 153 160 147 123 72 67 64 17 329 68 41 22 8 350 338 308 276 269 271 271 271 273 269 272 70 64 61 47 40 43 38 14 15 359 331 280 277 277 291 292 308 349
54 54 55 58 62 58 49 50 49 44 46 62 69 90 113 109 74 246 248 214 192 165 162 129 115 144 148 161 169 173 174 158 165 171 239 248 218 205 189 231 245 235 203 195 231 192 199 170 122 94 62 39 62 51 30 14 13 4 340 288 274 264 266 275 285 280 274 66 83 65 62 56 53 37 33 29 12 356 321 309 298 291 299 291 337
64 62 60 56 53 53 48 48 48 44 44 53 67 76 71 53 36 18 19 30 74 91 91 128 175 138 124 149 162 160 142 220 204 164 132 218 236 210 192 204 183 212 200 131 164 146 100 86 72 78 74 74 72 59 34 23 28 21 2 325 281 289 295 300 299 315 355 65 78 75 64 55 54 51 46 41 33 19 347 335 348 352 343 331 102
70 72 73 68 66 66 66 64 65 70 75 74 72 72 69 69 69 60 27 17 43 68 98 104 100 130 164 176 161 136 155 184 175 193 168 150 273 256 185 181 177 172 162 134 165 108 93 94 84 79 76 67 63 72 50 35 37 31 21 1 23 20 4 353 341 323 89 80 81 69 71 51 42 43 41 39 37 30 19 16 25 6 347 43 83
77 78 79 80 75 73 71 70 70 74 76 84 93 90 86 81 76 68 61 48 47 58 128 142 156 145 158 149 138 156 179 162 174 170 155 154 140 278 211 180 191 157 145 134 120 96 97 94 91 84 82 74 61 56 60 46 40 37 33 23 32 41 8 35 40 32 24 25 26 64 57 56 43 48 51 50 48 48 43 63 53 52 66 79 93
83 79 79 81 78 69 64 67 70 73 75 80 82 81 77 74 71 71 70 64 72 71 62 61 71 76 63 52 51 79 105 123 120 126 133 98 92 246 217 143 123 111 119 108 93 98 103 103 95 87 88 82 71 60 49 54 42 36 32 35 35 36 21 48 47 41 20 26 55 62 90 52 28 31 46 53 58 77 73 70 69 64 59 57 65
89 89 87 84 82 79 75 65 58 65 71 68 70 72 67 65 61 52 56 62 69 72 70 69 67 62 58 50 43 40 45 47 92 101 106 121 138 107 81 91 101 97 97 101 102 106 107 102 100 94 88 82 73 69 56 48 40 28 22 23 24 28 30 40 53 54 36 20 11 32 25 358 7 17 62 62 56 60 86 97 89 84 77 67 74
85 86 90 91 92 91 88 80 70 67 70 74 73 74 69 66 58 46 58 67 75 77 77 75 73 72 72 71 62 50 42 39 45 97 121 116 108 100 96 93 102 108 111 107 103 105 104 105 96 85 79 68 62 55 60 47 38 38 9 1 8 14 31 22 50 60 74 72 328 317 338 347 344 18 108 97 82 77 80 79 76 84 92 95 98
87 87 87 90 91 91 90 90 87 80 72 69 74 78 77 75 65 58 58 57 61 64 69 73 74 71 70 71 71 64 56 44 42 48 88 91 101 105 104 101 100 104 109 113 117 116 113 109 104 101 96 89 79 85 75 52 19 323 249 239 345 353 17 24 37 46 19 347 299 288 309 336 13 22 57 61 77 91 89 86 84 89 89 96 97
80 79 81 80 82 84 84 83 81 83 87 86 81 76 75 69 68 71 67 59 65 68 69 73 76 75 69 66 68 70 70 64 57 52 50 49 51 65 89 103 110 107 106 108 112 115 117 119 118 121 114 102 106 96 112 152 140 272 327 307 131 141 161 201 214 136 177 181 116 38 63 63 63 48 63 86 100 106 105 98 91 77 79 77 65
80 82 84 86 85 85 84 81 81 80 79 80 81 86 96 103 102 98 100 94 84 85 83 82 79 74 76 76 74 68 70 64 42 39 39 34 41 33 44 43 43 63 106 119 124 125 127 127 128 121 119 121 116 111 42 34 36 5 352 352 356 359 7 6 345 75 90 101 110 136 153 148 93 99 94 89 86 89 93 88 83 82 78 76 76
80 76 78 80 80 80 79 80 79 75 74 73 73 76 79 84 86 87 89 95 98 105 112 109 106 104 95 93 97 95 88 84 68 54 53 40 23 356 36 63 42 22 355 65 109 102 98 113 124 128 141 146 153 128 114 41 28 33 347 358 351 14 351 357 29 352 316 137 136 128 115 119 113 108 106 103 108 101 94 97 100 102 100 95 101
88 85 83 81 79 81 81 79 76 74 74 75 75 73 70 71 72 80 86 90 95 97 95 94 101 107 110 114 110 106 105 110 109 100 93 79 65 53 14 31 50 15 27 14 4 86 90 113 100 64 24 8 85 83 74 43 17 1 352 301 302 304 291 300 315 313 295 286 117 105 97 98 106 106 104 111 110 109 105 98 91 84 78 81 90
100 95 88 84 84 83 82 78 75 73 71 69 67 66 69 69 65 68 78 86 85 84 88 93 97 97 87 103 107 101 102 104 106 108 112 108 100 63 51 43 42 42 31 45 57 59 55 44 69 117 68 53 65 62 42 8 349 335 322 306 295 286 293 273 258 303 260 130 102 95 91 82 81 86 89 94 99 92 91 102 107 94 74 69 53